Content
SEND FEEDBACK

Daily
Averages
Monthly
Summary
United States of America

AGAT, GUAM


Home > North America > United States > Guam
Elevation: 364 feet     Latitude: 13 33N     Longitude: 144 50E

WEATHER
 
SELECT A DAY
Number of Records: 208,807;   Date Range: 1/1/95 - 7/7/14
 
SHARE

PRINT THIS DATA

[ ← Previous Day ]
WEATHER ALMANAC - JULY 23, 2013
[ Next Day → ]
[ °C ]   °F
Weather ElementAverageHighLow
Temperature84.8 °F90 °F (1:54 pm)78.8 °F (5:26 am)
Dewpoint76 °F78.1 °F (8:54 am)75 °F (3:54 pm)
Humidity75.4 %89 % (5:26 am)61 % (3:54 pm)
Barometer29.88 in29.90 in (8:54 pm)29.83 in (3:54 pm)
Wind Speed5.8 mph10.4 mph (3:54 pm)
Weather ElementAverage
Visibility9.4 mi
Wind DirectionESE (100.7 °)

Weather ElementTotal
Precipitation0.71 in
Cooling Degree Days19.4 (Base 65)
Growing Degree Days34.4 (Base 50)
Averaged from 29 records on July 23, 2013
WEATHER CONDITIONS BREAKOUT
WIND DIRECTION BREAKOUT
WEATHER BY HOUR - JULY 23, 2013
[ °C ]   °F
Local TimeTemperatureDewpointHumidityBarometerVisibilityWind DirectionWind SpeedGust SpeedPrecipitationEventsConditions
1:54 AM81.0 °F77.0 °F88 %29.87 in10.0 miNE (50°)5.8 mph0.00 inClear
2:54 AM82.0 °F77.0 °F85 %29.86 in8.0 miSE (140°)4.6 mph0.00 inRainLight Rain
3:22 AM80.6 °F75.2 °F84 %29.89 in1.8 miEast (100°)3.5 mph0.14 inRainHeavy Rain
3:30 AM80.6 °F75.2 °F84 %29.88 in3.0 miNorth (350°)6.9 mph0.21 inRainRain
3:54 AM80.1 °F75.9 °F87 %29.86 in10.0 miSouth (180°)3.5 mph0.22 inOvercast
4:35 AM80.6 °F75.2 °F84 %29.89 in10.0 miCalm0.05 inMostly Cloudy
4:54 AM80.1 °F75.9 °F87 %29.87 in10.0 miNorth (350°)3.5 mph0.06 inRainLight Rain
5:26 AM78.8 °F75.2 °F89 %29.88 in10.0 miNNE (20°)4.6 mph0.03 inMostly Cloudy
5:54 AM80.1 °F75.9 °F87 %29.87 in10.0 miNE (50°)8.1 mphPartly Cloudy
6:54 AM81.0 °F75.9 °F85 %29.88 in10.0 miCalmClear
7:54 AM82.9 °F77.0 °F82 %29.89 in10.0 miCalmClear
8:54 AM84.0 °F78.1 °F82 %29.89 in10.0 miEast (90°)3.5 mphClear
9:54 AM86.0 °F78.1 °F77 %29.88 in10.0 miEast (80°)9.2 mphClear
10:54 AM86.0 °F77.0 °F74 %29.89 in10.0 miEast (100°)9.2 mphPartly Cloudy
11:54 AM89.1 °F77.0 °F67 %29.88 in10.0 miEast (100°)8.1 mphPartly Cloudy
12:54 PM89.1 °F75.9 °F65 %29.87 in10.0 miESE (120°)8.1 mphScattered Clouds
12:59 PM89.6 °F75.2 °F62 %29.89 in10.0 miESE (110°)9.2 mphMostly Cloudy
1:08 PM89.6 °F75.2 °F62 %29.89 in10.0 miSE (130°)6.9 mphMostly Cloudy
1:54 PM90.0 °F75.9 °F63 %29.86 in10.0 miSE (130°)6.9 mphScattered Clouds
2:54 PM89.1 °F75.9 °F65 %29.84 in10.0 miESE (110°)9.2 mphScattered Clouds
3:54 PM90.0 °F75.0 °F61 %29.83 in10.0 miEast (90°)10.4 mphScattered Clouds
4:54 PM89.1 °F75.0 °F63 %29.84 in10.0 miEast (80°)9.2 mphPartly Cloudy
5:54 PM88.0 °F75.9 °F67 %29.86 in10.0 miEast (80°)8.1 mphClear
6:54 PM86.0 °F75.9 °F72 %29.87 in10.0 miEast (80°)4.6 mphPartly Cloudy
7:54 PM86.0 °F75.0 °F70 %29.89 in10.0 miENE (70°)4.6 mphClear
8:54 PM86.0 °F75.9 °F72 %29.90 in10.0 miENE (70°)4.6 mphPartly Cloudy
9:54 PM84.9 °F75.9 °F74 %29.90 in10.0 miEast (90°)3.5 mphPartly Cloudy
10:54 PM84.9 °F75.9 °F74 %29.90 in10.0 miENE (60°)5.8 mphClear
11:54 PM84.9 °F75.9 °F74 %29.89 in10.0 miEast (90°)5.8 mphScattered Clouds
Hourly data recorded from PGUM, located miles away from Agat, Guam







STORIES FROM OUR PARTNERS